DW6743 Weather Reports


time (UTC)temp
C
wind
direction
speed
KPH
gust
KPH
rain 1hr
cm
rain 24hr
cm
rain mn
cm
humidity
%
barometer
mb
20260507060805 8 65 1.6 3.2 0.00 0.00 0.00 76 1015.2
20260507060304 8 65 0.0 3.2 0.00 0.00 0.00 78 1015.2
20260507054804 7 65 1.6 1.6 0.00 0.00 0.00 82 1015.1
20260507054639 7 0 0.0 3.2 0.00 0.00 0.00 82 1015.1
20260507054304 6 65 0.0 1.6 0.00 0.00 0.00 82 1015.0
20260507053307 6 65 0.0 3.2 0.00 0.00 0.00 83 1014.9
20260507053058 5 0 0.0 1.6 0.00 0.00 0.00 83 1014.7
20260507051804 4 65 0.0 1.6 0.00 0.00 0.00 84 1014.7
20260507051603 3 0 0.0 3.2 0.00 0.00 0.00 84 1014.7
20260507051304 3 65 0.0 1.6 0.00 0.00 0.00 84 1014.7
20260507050804 3 65 0.0 3.2 0.00 0.00 0.00 84 1014.7
20260507050304 2 65 1.6 3.2 0.00 0.00 0.00 84 1014.7
20260507050059 2 65 0.0 3.2 0.00 0.00 0.00 84 1014.5
20260507044804 2 65 0.0 0.0 0.00 0.00 0.00 84 1014.4
20260507044603 2 0 0.0 3.2 0.00 0.00 0.00 84 1014.4
20260507044304 2 65 0.0 1.6 0.00 0.00 0.00 84 1014.5
20260507043804 1 65 1.6 3.2 0.00 0.00 0.00 84 1014.5
20260507043304 1 65 0.0 1.6 0.00 0.00 0.00 84 1014.5
20260507043103 1 0 0.0 1.6 0.00 0.00 0.00 83 1014.4
20260507041602 1 0 0.0 3.2 0.00 0.00 0.00 84 1014.3
20260507041304 1 65 0.0 0.0 0.00 0.00 0.00 84 1014.4
20260507040804 1 65 1.6 3.2 0.00 0.00 0.00 84 1014.4
20260507040304 0 65 3.2 4.8 0.00 0.00 0.00 84 1014.3
20260507040058 0 65 3.2 6.4 0.00 0.00 0.00 83 1014.3
20260507034600 0 65 1.6 3.2 0.00 0.00 0.00 83 1014.1
20260507034304 0 65 1.6 3.2 0.00 0.00 0.00 83 1014.2
20260507033804 0 65 0.0 0.0 0.00 0.00 0.00 84 1014.1
20260507033304 0 65 0.0 4.8 0.00 0.00 0.00 83 1014.1
20260507033105 0 0 0.0 4.8 0.00 0.00 0.00 83 1014.1
20260507031804 0 65 3.2 3.2 0.00 0.00 0.00 83 1014.1
20260507031609 0 65 0.0 4.8 0.00 0.00 0.00 83 1014.1
20260507031304 0 65 1.6 3.2 0.00 0.00 0.00 83 1014.1
20260507030100 0 65 0.0 3.2 0.00 0.00 0.00 82 1014.1
20260507024604 0 0 0.0 3.2 0.00 0.00 0.00 82 1014.0
20260507024305 0 65 0.0 1.6 0.00 0.00 0.00 83 1014.0
20260507023804 0 65 1.6 3.2 0.00 0.00 0.00 83 1014.0
20260507023304 0 65 1.6 3.2 0.00 0.00 0.00 82 1013.8
20260507023107 0 65 1.6 3.2 0.00 0.00 0.00 82 1013.8
20260507021602 0 0 0.0 1.6 0.00 0.00 0.00 82 1013.7
20260507021304 1 65 0.0 1.6 0.00 0.00 0.00 82 1013.8
20260507020304 1 65 0.0 0.0 0.00 0.00 0.00 82 1013.8
20260507014804 1 65 0.0 0.0 0.00 0.00 0.00 82 1013.8
20260507014605 1 0 0.0 4.8 0.00 0.00 0.00 81 1013.9
20260507014304 1 65 0.0 4.8 0.00 0.00 0.00 82 1013.8
20260507013804 1 65 1.6 4.8 0.00 0.00 0.00 82 1013.8
20260507013056 1 65 4.8 6.4 0.00 0.00 0.00 81 1013.8
20260507011804 1 65 4.8 4.8 0.00 0.00 0.00 81 1013.7
20260507011556 1 65 4.8 6.4 0.00 0.00 0.00 81 1013.7
20260507010804 1 65 3.2 4.8 0.00 0.00 0.00 81 1013.8
20260507010305 1 65 4.8 8.0 0.00 0.00 0.00 81 1013.7
20260507004804 2 65 3.2 4.8 0.00 0.00 0.00 81 1013.6
20260507004558 1 65 3.2 6.4 0.00 0.00 0.00 80 1013.5
20260507004304 1 65 3.2 4.8 0.00 0.00 0.00 81 1013.6
20260507003305 1 65 4.8 8.0 0.00 0.00 0.00 80 1013.5
20260507003055 1 65 4.8 8.0 0.00 0.00 0.00 79 1013.4
20260507001605 1 65 8.0 12.9 0.00 0.00 0.00 79 1013.4
20260507000306 2 66 9.7 12.9 0.00 0.00 0.00 78 1013.3
20260507000057 2 64 9.7 12.9 0.00 0.00 0.00 78 1013.3
20260506234600 2 56 8.0 12.9 0.00 0.00 0.00 77 1013.3
20260506234304 2 56 8.0 12.9 0.00 0.00 0.00 78 1013.3
20260506233304 2 54 8.0 9.7 0.00 0.00 0.00 77 1013.4
20260506233109 2 54 6.4 9.7 0.00 0.00 0.00 77 1013.4
20260506231804 2 50 8.0 9.7 0.00 0.00 0.00 77 1013.3
20260506231559 2 50 6.4 11.3 0.00 0.00 0.00 77 1013.3
20260506231304 2 55 8.0 9.7 0.00 0.00 0.00 77 1013.3
20260506230804 2 53 8.0 11.3 0.00 0.00 0.00 77 1013.2
20260506230304 2 57 8.0 12.9 0.00 0.00 0.00 76 1013.2
20260506230058 2 57 6.4 12.9 0.00 0.00 0.00 76 1013.0
20260506224804 3 50 8.0 9.7 0.00 0.00 0.00 76 1013.0
20260506224556 3 48 8.0 12.9 0.00 0.00 0.00 76 1013.1
20260506224304 3 46 9.7 12.9 0.00 0.00 0.00 77 1013.0
20260506223804 3 51 9.7 12.9 0.00 0.00 0.00 76 1013.0
20260506223102 3 40 6.4 14.5 0.00 0.00 0.00 75 1013.0
20260506221804 3 44 9.7 14.5 0.00 0.00 0.00 76 1012.9
20260506221559 3 44 9.7 14.5 0.00 0.00 0.00 75 1012.8
20260506221304 3 45 9.7 12.9 0.00 0.00 0.00 75 1012.8
20260506220827 3 44 8.0 11.3 0.00 0.00 0.00 75 1012.8
20260506220304 3 44 8.0 12.9 0.00 0.00 0.00 75 1012.7
20260506220059 3 44 6.4 12.9 0.00 0.00 0.00 74 1012.7
20260506214804 3 32 9.7 12.9 0.00 0.00 0.00 74 1012.4
20260506214557 3 29 9.7 12.9 0.00 0.00 0.00 74 1012.3
20260506214304 4 26 9.7 12.9 0.00 0.00 0.00 74 1012.4
20260506213804 4 27 9.7 9.7 0.00 0.00 0.00 74 1012.4
20260506213304 4 27 8.0 9.7 0.00 0.00 0.00 74 1012.3
20260506213113 4 27 4.8 8.0 0.00 0.00 0.00 73 1012.3
20260506211557 4 65 3.2 6.4 0.00 0.00 0.00 72 1012.2
20260506211304 5 65 3.2 4.8 0.00 0.00 0.00 72 1012.2
20260506210804 5 65 1.6 3.2 0.00 0.00 0.00 72 1012.3
20260506210058 5 65 3.2 8.0 0.00 0.00 0.00 71 1012.2
20260506204804 5 65 4.8 4.8 0.00 0.00 0.00 70 1012.1
20260506204559 5 65 4.8 6.4 0.00 0.00 0.00 70 1012.1
20260506204304 6 65 4.8 4.8 0.00 0.00 0.00 70 1012.2
20260506203804 6 65 4.8 4.8 0.00 0.00 0.00 70 1012.1
20260506203304 6 65 4.8 11.3 0.00 0.00 0.00 70 1012.1
20260506203057 6 65 4.8 11.3 0.00 0.00 0.00 69 1012.0
20260506201804 6 65 8.0 11.3 0.00 0.00 0.00 69 1012.0
20260506201557 6 65 8.0 12.9 0.00 0.00 0.00 68 1012.0
20260506201304 7 65 9.7 11.3 0.00 0.00 0.00 68 1012.0
20260506200804 7 65 11.3 12.9 0.00 0.00 0.00 67 1012.1
20260506200059 7 65 8.0 12.9 0.00 0.00 0.00 65 1012.0
20260506194634 8 60 6.4 16.1 0.00 0.00 0.00 63 1012.0
20260506194304 8 60 8.0 12.9 0.00 0.00 0.00 63 1011.9
20260506193804 8 53 9.7 16.1 0.00 0.00 0.00 62 1012.0
20260506193304 8 55 9.7 16.1 0.00 0.00 0.00 62 1011.9
20260506193106 8 53 9.7 16.1 0.00 0.00 0.00 61 1012.0
20260506191557 9 63 8.0 17.7 0.00 0.00 0.00 60 1011.8
20260506191305 9 66 8.0 16.1 0.00 0.00 0.00 60 1011.8
20260506190804 9 58 14.5 19.3 0.00 0.00 0.00 60 1011.8
20260506184804 10 52 12.9 19.3 0.00 0.00 0.00 61 1011.5
20260506184557 10 49 14.5 24.1 0.00 0.00 0.00 60 1011.4
20260506184304 10 53 17.7 24.1 0.00 0.00 0.00 60 1011.5
20260506183305 10 51 20.9 29.0 0.00 0.00 0.00 60 1011.3
20260506183057 10 48 17.7 29.0 0.00 0.00 0.00 60 1011.3
20260506181804 10 43 17.7 25.7 0.00 0.00 0.00 59 1011.4
20260506181559 10 39 17.7 30.6 0.00 0.00 0.00 58 1011.2
20260506181304 10 42 22.5 29.0 0.00 0.00 0.00 59 1011.4
20260506180305 11 54 22.5 32.2 0.00 0.00 0.00 59 1011.3
20260506180107 10 54 20.9 27.4 0.00 0.00 0.00 59 1011.2
20260506174804 11 55 22.5 29.0 0.00 0.00 0.00 59 1011.3
20260506174601 11 66 22.5 29.0 0.00 0.00 0.00 58 1011.2
20260506174304 11 49 22.5 27.4 0.00 0.00 0.00 59 1011.3
20260506173804 11 54 22.5 29.0 0.00 0.00 0.00 58 1011.2
20260506173059 11 40 16.1 29.0 0.00 0.00 0.00 56 1011.2
20260506171804 11 39 12.9 24.1 0.00 0.00 0.00 51 1011.2
20260506171604 11 29 12.9 29.0 0.00 0.00 0.00 50 1011.2
20260506171304 11 38 14.5 25.7 0.00 0.00 0.00 50 1011.2
20260506170804 11 56 20.9 29.0 0.00 0.00 0.00 50 1011.3
20260506170304 11 36 14.5 27.4 0.00 0.00 0.00 49 1011.2
20260506170111 11 45 17.7 27.4 0.00 0.00 0.00 48 1011.1
20260506164804 12 47 19.3 25.7 0.00 0.00 0.00 50 1011.2
20260506164607 11 33 19.3 29.0 0.00 0.00 0.00 50 1011.1
20260506164304 12 50 16.1 24.1 0.00 0.00 0.00 51 1011.2
20260506163804 12 43 19.3 29.0 0.00 0.00 0.00 52 1011.2
20260506163119 11 48 14.5 29.0 0.00 0.00 0.00 50 1011.2
20260506161804 12 41 19.3 27.4 0.00 0.00 0.00 50 1011.1
20260506161614 11 47 16.1 25.7 0.00 0.00 0.00 49 1011.1
20260506161304 12 52 17.7 24.1 0.00 0.00 0.00 49 1011.1
20260506160804 12 36 19.3 25.7 0.00 0.00 0.00 48 1011.1
20260506160304 12 43 19.3 25.7 0.00 0.00 0.00 47 1011.1
20260506160059 12 32 14.5 25.7 0.00 0.00 0.00 46 1011.1
20260506154804 12 50 14.5 27.4 0.00 0.00 0.00 45 1011.1
20260506154624 12 40 14.5 25.7 0.00 0.00 0.00 44 1011.1
20260506153804 12 42 16.1 25.7 0.00 0.00 0.00 44 1011.1
20260506153117 12 21 16.1 25.7 0.00 0.00 0.00 42 1011.0
20260506151804 12 47 20.9 25.7 0.00 0.00 0.00 42 1011.1
20260506151600 11 53 19.3 24.1 0.00 0.00 0.00 41 1011.1
20260506151304 12 28 16.1 24.1 0.00 0.00 0.00 41 1011.2
20260506144804 12 28 19.3 25.7 0.00 0.00 0.00 35 1011.2
20260506144558 12 24 16.1 25.7 0.00 0.00 0.00 35 1011.1
20260506144304 12 35 20.9 25.7 0.00 0.00 0.00 37 1011.2
20260506143804 12 18 19.3 25.7 0.00 0.00 0.00 36 1011.2
20260506143304 11 19 19.3 27.4 0.00 0.00 0.00 34 1011.3
20260506143107 11 30 17.7 27.4 0.00 0.00 0.00 33 1011.3
20260506141804 12 28 19.3 25.7 0.00 0.00 0.00 38 1011.3
20260506141559 11 25 19.3 27.4 0.00 0.00 0.00 38 1011.3
20260506141304 12 25 17.7 25.7 0.00 0.00 0.00 38 1011.3
20260506140804 12 28 20.9 25.7 0.00 0.00 0.00 40 1011.4
20260506140304 12 28 20.9 27.4 0.00 0.00 0.00 41 1011.4
20260506140059 11 25 19.3 27.4 0.00 0.00 0.00 40 1011.4
20260506134804 12 26 16.1 27.4 0.00 0.00 0.00 40 1011.4
20260506134557 12 52 16.1 25.7 0.00 0.00 0.00 41 1011.4
20260506134304 12 20 16.1 24.1 0.00 0.00 0.00 41 1011.4
20260506133304 12 30 19.3 25.7 0.00 0.00 0.00 41 1011.4
20260506133059 11 9 19.3 25.7 0.00 0.00 0.00 41 1011.3
20260506131806 12 20 20.9 25.7 0.00 0.00 0.00 38 1011.4
20260506131601 12 24 17.7 25.7 0.00 0.00 0.00 39 1011.3
20260506131304 12 15 19.3 25.7 0.00 0.00 0.00 40 1011.4
20260506130804 12 22 20.9 24.1 0.00 0.00 0.00 39 1011.4
20260506130304 11 14 16.1 25.7 0.00 0.00 0.00 40 1011.3
20260506124559 11 11 17.7 27.4 0.00 0.00 0.00 43 1011.4
20260506124318 11 13 17.7 24.1 0.00 0.00 0.00 44 1011.4
20260506123304 12 24 19.3 25.7 0.00 0.00 0.00 44 1011.3
20260506123100 12 15 20.9 25.7 0.00 0.00 0.00 45 1011.3
20260506121804 12 347 19.3 24.1 0.00 0.00 0.00 47 1011.4
20260506121600 11 345 12.9 25.7 0.00 0.00 0.00 48 1011.3
20260506121304 11 354 19.3 24.1 0.00 0.00 0.00 48 1011.4
20260506120804 12 356 22.5 25.7 0.00 0.00 0.00 47 1011.4
20260506120304 12 355 14.5 24.1 0.00 0.00 0.00 47 1011.5
20260506120101 12 2 17.7 24.1 0.00 0.00 0.00 47 1011.4
20260506114804 12 354 17.7 24.1 0.00 0.00 0.00 48 1011.4
20260506114606 11 350 16.1 24.1 0.00 0.00 0.00 48 1011.5
20260506114304 12 1 20.9 24.1 0.00 0.00 0.00 47 1011.4
20260506113804 12 4 19.3 22.5 0.00 0.00 0.00 50 1011.5
20260506113304 11 358 12.9 22.5 0.00 0.00 0.00 52 1011.5
20260506113057 11 356 17.7 22.5 0.00 0.00 0.00 49 1011.5
20260506111804 11 4 16.1 20.9 0.00 0.00 0.00 47 1011.5
20260506111557 11 358 12.9 19.3 0.00 0.00 0.00 50 1011.5
20260506111304 11 8 12.9 19.3 0.00 0.00 0.00 44 1011.5
20260506110804 11 348 11.3 24.1 0.00 0.00 0.00 49 1011.6
20260506110305 11 3 11.3 24.1 0.00 0.00 0.00 48 1011.7
20260506110103 11 356 11.3 22.5 0.00 0.00 0.00 48 1011.7
20260506104804 11 15 11.3 19.3 0.00 0.00 0.00 46 1011.8
20260506104600 11 313 12.9 20.9 0.00 0.00 0.00 48 1011.7
20260506104304 11 322 9.7 19.3 0.00 0.00 0.00 47 1011.9
20260506103804 11 0 16.1 20.9 0.00 0.00 0.00 48 1011.9
20260506103057 11 13 8.0 20.9 0.00 0.00 0.00 45 1011.8
20260506101804 11 4 14.5 20.9 0.00 0.00 0.00 51 1012.0
20260506101604 11 7 14.5 19.3 0.00 0.00 0.00 51 1011.9
20260506100804 11 332 14.5 19.3 0.00 0.00 0.00 48 1012.0
20260506100304 11 317 12.9 20.9 0.00 0.00 0.00 52 1012.0
20260506100100 11 329 12.9 20.9 0.00 0.00 0.00 53 1011.8
20260506094804 11 344 11.3 19.3 0.00 0.00 0.00 52 1012.0
20260506094622 11 336 11.3 19.3 0.00 0.00 0.00 50 1012.0
20260506094304 11 327 12.9 19.3 0.00 0.00 0.00 50 1012.0
20260506093805 11 326 14.5 19.3 0.00 0.00 0.00 50 1011.9
20260506093304 11 338 14.5 22.5 0.00 0.00 0.00 49 1011.9
20260506093057 11 319 12.9 22.5 0.00 0.00 0.00 49 1011.8
20260506091804 12 332 12.9 22.5 0.00 0.00 0.00 46 1011.9
20260506091557 12 325 9.7 17.7 0.00 0.00 0.00 44 1011.9
20260506091304 12 335 11.3 19.3 0.00 0.00 0.00 45 1012.0
20260506090804 12 319 8.0 16.1 0.00 0.00 0.00 31 1011.9
20260506090304 12 275 3.2 12.9 0.00 0.00 0.00 31 1012.0
20260506090059 12 0 1.6 12.9 0.00 0.00 0.00 30 1011.8
20260506084804 12 193 9.7 14.5 0.00 0.00 0.00 31 1012.0
20260506084602 12 174 6.4 19.3 0.00 0.00 0.00 31 1012.0
20260506083804 12 219 11.3 19.3 0.00 0.00 0.00 32 1012.0
20260506083305 12 203 3.2 20.9 0.00 0.00 0.00 31 1012.0
20260506083103 12 257 4.8 20.9 0.00 0.00 0.00 31 1011.9
20260506081804 12 212 8.0 16.1 0.00 0.00 0.00 34 1012.1
20260506081559 11 254 9.7 20.9 0.00 0.00 0.00 35 1012.0
20260506081304 11 219 9.7 16.1 0.00 0.00 0.00 38 1012.0
20260506080804 11 193 16.1 20.9 0.00 0.00 0.00 36 1012.1
20260506080304 11 198 16.1 22.5 0.00 0.00 0.00 37 1012.0
20260506073304 11 210 12.9 24.1 0.00 0.00 0.00 40 1012.1
20260506073105 10 169 9.7 22.5 0.00 0.00 0.00 41 1012.0
20260506071804 10 175 14.5 20.9 0.00 0.00 0.00 44 1012.0
20260506071559 10 184 12.9 24.1 0.00 0.00 0.00 44 1012.0
20260506071304 10 193 14.5 22.5 0.00 0.00 0.00 46 1012.1
20260506070804 10 169 9.7 19.3 0.00 0.00 0.00 45 1012.1
20260506070304 10 194 14.5 20.9 0.00 0.00 0.00 45 1012.0
20260506070109 9 183 12.9 19.3 0.00 0.00 0.00 45 1012.0
20260506061806 8 178 14.5 19.3 0.00 0.00 0.00 49 1012.1
20260506061600 8 181 8.0 19.3 0.00 0.00 0.00 49 1012.2
20260506061304 8 159 11.3 19.3 0.00 0.00 0.00 51 1012.1